Back to catalog

STARLINK-3240

AliveCommunicationsVLEO
NORAD 49728·PAYLOAD·🇺🇸 United States

Launched Dec 2, 2021 from Cape Canaveral Space Force Station

Loading…

Next Passes (next 24 hours)

TLE

FreshSource: CelesTrak SupGP

Epoch: Sep 14, 2026, 14:02 UTC

1 49728C 21115E   26257.58520833 -.00031696  00000+0 -93694-3 0  2573
2 49728  53.1605  17.0273 0001229  83.2224 185.3321 15.34390666    14

Track STARLINK-3240 in real time with AllMySat

Download on the App Store